﻿Дата;Google;AdRiver
2017-01-16;1;0
2016-01-29;1;0
2016-01-27;1;0
2016-01-26;3;0
2016-01-25;2;0
2016-01-23;1;0
2016-01-22;1;0
2016-01-21;1;0
2016-01-20;3;0
2016-01-18;1;0
2016-01-14;1;0
2016-01-13;1;0
2016-01-12;1;0
2016-01-08;1;0
2016-01-04;1;0
2015-12-29;1;0
2015-12-24;1;0
2015-12-10;1;0
2015-11-29;1;0
2015-11-24;1;0
2015-11-21;1;0
2015-11-17;2;0
2015-11-11;2;0
2015-11-06;2;0
2015-11-04;1;0
2015-11-03;1;0
2015-11-02;1;0
2015-10-29;1;0
2015-10-27;1;0
2015-10-18;1;0
2015-10-17;1;0
2015-10-13;1;0
2015-10-12;1;0
2015-10-11;5;0
2015-10-10;1;0
2015-10-08;1;0
2015-10-07;1;0
2015-10-06;1;0
2015-10-05;1;0
2015-10-04;2;0
2015-10-02;1;0
2015-10-01;1;0
2015-09-29;1;0
2015-09-27;1;0
2015-09-26;3;0
2015-09-24;2;0
2015-09-23;3;0
2015-09-20;2;0
2015-09-19;1;0
2015-09-18;2;0
2015-09-16;2;0
2015-09-14;3;0
2015-09-12;4;0
2015-09-11;1;0
2015-09-10;3;0
2015-09-09;3;0
2015-09-06;3;0
2015-09-03;1;0
2015-08-31;1;0
2015-08-27;1;0
2015-08-21;1;0
2015-08-20;1;0
2015-08-19;1;0
2015-08-08;1;0
2015-08-07;1;0
2015-08-04;1;0
2015-07-28;3;0
2015-07-18;2;0
2015-07-16;2;0
2015-07-15;1;0
2015-07-14;1;0
2015-07-12;1;0
2015-07-11;2;0
2015-07-03;1;0
2015-06-30;1;0
2015-06-29;2;0
2015-06-27;1;0
2015-06-23;3;0
2015-06-22;4;0
2015-06-21;2;0
2015-06-20;3;0
2015-06-17;4;0
2015-06-16;1;0
2015-06-15;1;0
2015-06-13;1;0
2015-06-09;2;0
2015-06-08;4;0
2015-06-02;1;0
2015-05-31;1;0
2015-05-29;1;0
2015-05-28;4;0
2015-05-27;5;0
2015-05-26;1;0
2015-05-24;1;0
2015-05-23;1;0
2015-05-21;3;0
2015-05-20;2;0
2015-05-19;1;0
2015-05-16;1;0
2015-05-10;1;0
2015-04-20;1;0
2015-04-10;1;0
2015-04-09;1;0
2015-04-06;1;0
2015-03-27;1;0
2015-03-25;1;0
2015-03-24;1;0
2015-03-22;2;0
2015-03-16;1;0
2015-03-15;1;0
2015-03-14;4;0
2015-03-13;1;0
2015-03-10;1;0
2015-03-03;1;0
2015-02-23;1;0
2015-02-15;1;0
2015-02-07;2;0
2015-02-06;10;0
2015-02-05;3;0
2015-02-04;4;0
2015-02-03;6;0
2015-02-02;6;0
2015-02-01;5;0
2015-01-31;7;0
2015-01-30;4;0
2015-01-29;4;0
2015-01-28;7;0
2015-01-27;8;0
2015-01-26;5;0
2015-01-25;10;0
2015-01-24;5;0
2015-01-23;5;0
2015-01-22;7;0
2015-01-21;5;0
2015-01-20;5;0
2015-01-19;3;0
2015-01-18;6;0
2015-01-17;2;0
2015-01-16;4;0
2015-01-15;22;0
2015-01-14;4;0
2015-01-12;34;0
2015-01-11;57;0
2015-01-10;43;0
2015-01-09;30;0
2015-01-08;47;0
2015-01-07;52;0
2015-01-06;29;0
2015-01-05;29;0
2015-01-04;35;0
2015-01-03;12;0
2015-01-02;12;0
2015-01-01;4;0
2014-12-31;3;0
2014-12-30;6;0
2014-12-29;10;0
2014-12-28;25;0
2014-12-27;24;0
2014-12-26;7;0
2014-12-25;10;0
2014-12-24;7;0
2014-12-23;12;0
2014-12-22;16;0
2014-12-21;19;0
2014-12-20;12;0
2014-12-19;8;0
2014-12-18;2;0
2014-12-17;3;0
2014-12-16;11;0
2014-12-15;7;0
2014-12-14;21;0
2014-12-13;10;0
2014-12-12;14;0
2014-12-11;8;0
2014-12-10;4;0
2014-12-09;2;0
2014-12-08;5;0
2014-12-07;20;0
2014-12-06;15;0
2014-12-05;7;0
2014-12-04;8;0
2014-12-03;8;0
2014-12-02;7;0
2014-12-01;9;0
2014-11-30;18;0
2014-11-29;17;0
2014-11-28;9;0
2014-11-27;8;0
2014-11-26;4;0
2014-11-25;7;0
2014-11-24;7;0
2014-11-23;14;0
2014-11-22;7;0
2014-11-21;10;0
2014-11-20;16;0
2014-11-19;14;0
2014-11-18;18;0
2014-11-17;9;0
2014-11-16;32;0
2014-11-15;14;0
2014-11-14;6;0
2014-11-13;4;0
2014-11-12;5;0
2014-11-11;12;0
2014-11-10;9;0
2014-11-09;14;0
2014-11-08;15;0
2014-11-07;9;0
2014-11-06;10;0
2014-11-05;9;0
2014-11-04;14;0
2014-11-03;7;0
2014-11-02;1;0
2014-11-01;9;0
2014-10-31;6;0
2014-10-30;2;2
2014-10-29;5;0
2014-10-28;5;0
2014-10-27;1;0
2014-10-26;2;0
2014-10-25;3;0
2014-10-24;4;0
2014-10-23;16;0
2014-10-22;18;0
2014-10-21;17;0
2014-10-20;8;0
2014-10-19;11;0
2014-10-18;29;0
2014-10-17;24;0
2014-10-16;21;0
2014-10-15;14;0
2014-10-14;15;0
2014-10-13;10;0
2014-10-12;6;0
2014-10-11;10;0
2014-10-10;13;0
2014-10-09;19;0
2014-10-08;22;0
2014-10-07;17;0
2014-10-06;26;0
2014-10-05;15;0
2014-10-04;24;0
2014-10-03;19;0
2014-10-02;14;0
2014-10-01;7;0
2014-09-30;14;0
2014-09-29;18;0
2014-09-28;18;0
2014-09-27;13;0
2014-09-26;9;0
2014-09-25;9;0
2014-09-24;11;0
2014-09-23;13;0
2014-09-22;8;0
2014-09-21;11;0
2014-09-20;7;0
2014-09-19;6;0
2014-09-18;7;0
2014-09-17;1;0
2014-09-16;5;0
2014-09-15;10;0
2014-09-14;5;0
2014-09-13;7;0
2014-09-12;11;0
2014-09-11;2;0
2014-09-10;3;0
2014-09-09;1;0
2014-09-08;2;0
2014-09-07;3;0
2014-09-06;10;0
2014-09-05;8;0
2014-09-04;4;0
2014-09-03;21;0
2014-09-02;19;0
2014-09-01;16;0
2014-08-31;9;0
2014-08-30;14;0
2014-08-29;11;0
2014-08-28;7;0
2014-08-27;9;0
2014-08-26;6;0
2014-08-25;5;0
2014-08-24;11;0
2014-08-23;2;0
2014-08-20;1;0
2014-08-19;1;0
2014-08-18;1;0
2014-08-16;4;0
2014-08-15;1;0
2014-08-14;3;0
2014-08-13;3;0
2014-08-12;5;0
2014-08-11;3;0
2014-08-10;8;0
2014-08-09;7;0
2014-08-08;4;0
2014-08-07;5;0
2014-08-06;2;0
2014-08-05;1;0
2014-08-03;2;0
2014-08-02;1;0
2014-08-01;4;0
2014-07-31;1;0
2014-07-29;1;0
2014-07-28;1;0
2014-07-21;1;0
2014-07-14;3;0
2014-07-13;1;0
2014-07-12;3;0
2014-07-11;1;0
2014-07-10;2;0
2014-07-07;1;0
2014-07-06;2;0
2014-07-05;1;0
2014-07-03;1;0
2014-06-29;1;0
2014-06-22;1;0
2014-06-17;1;0
2014-06-15;1;0
2014-06-04;2;0
2014-06-02;1;0
